This demonstration page uses our WeatherBlox Daily Observations layout. Learn more.

Left ArrowRight Arrow

39.92423, -83.80882

Hourly Observations for September 24, 2020

Temp ( °F °C ) Dew Point ( °F °C ) Humidity (%) Winds ( mph kmh ) Pressure ( in mb ) Visibility ( mi km ) Precip ( " mm )
12:56 am 00:56 Clear 58 14.4 57 13.9 97 97 WSW 5 7 30.04 1017 10 16 N/A
1:56 am 01:56 Clear 57 13.9 57 13.9 100 100 N N/A 30.03 1017 10 16 N/A
2:56 am 02:56 Clear 58 14.4 57 13.9 97 97 W 5 7 30.02 1017 10 16 N/A
3:56 am 03:56 Clear 58 14.4 56 13.3 93 93 W 3 6 30.02 1017 10 16 N/A
4:56 am 04:56 Clear 58 14.4 56 13.3 93 93 SW 3 6 30.02 1017 10 16 N/A
5:56 am 05:56 Clear 56 13.3 56 13.3 100 100 WSW 5 7 30.02 1017 10 16 N/A
6:56 am 06:56 Clear 56 13.3 56 13.3 100 100 SW 5 7 30.03 1017 10 16 N/A
7:56 am 07:56 Sunny 56 13.3 56 13.3 100 100 N N/A 30.04 1017 10 16 N/A
8:56 am 08:56 Sunny 59 15 58 14.4 96 96 N N/A 30.06 1018 10 16 N/A
9:56 am 09:56 Sunny 62 16.7 56 13.3 80 80 N 3 6 30.06 1018 10 16 N/A
10:56 am 10:56 Sunny 66 18.9 56 13.3 70 70 N N/A 30.05 1018 10 16 N/A
11:56 am 11:56 Sunny 69 20.6 55 12.8 61 61 WNW 7 11 30.05 1018 10 16 N/A
12:56 pm 12:56 Sunny 73 22.8 56 13.3 55 55 VRB 6 9 30.04 1017 10 16 N/A
1:56 pm 13:56 Sunny 74 23.3 55 12.8 52 52 VRB 6 9 30.02 1017 10 16 N/A
2:56 pm 14:56 Sunny 75 23.9 56 13.3 52 52 S 6 9 30.00 1016 10 16 N/A
3:56 pm 15:56 Sunny 76 24.4 55 12.8 48 48 VRB 3 6 29.98 1015 10 16 N/A
4:56 pm 16:56 Sunny 77 25 54 12.2 45 45 S 6 9 29.97 1015 10 16 N/A
5:56 pm 17:56 Sunny 76 24.4 53 11.7 45 45 N N/A 29.98 1015 10 16 N/A
6:56 pm 18:56 Sunny 72 22.2 55 12.8 55 55 N N/A 29.98 1015 10 16 N/A
7:56 pm 19:56 Clear 67 19.4 56 13.3 68 68 S 3 6 29.99 1016 10 16 N/A
8:56 pm 20:56 Clear 64 17.8 56 13.3 75 75 SSE 5 7 30.00 1016 10 16 N/A
9:56 pm 21:56 Clear 57 13.9 56 13.3 96 96 ENE 3 6 30.01 1016 10 16 N/A
10:56 pm 22:56 Clear 56 13.3 56 13.3 100 100 E 3 6 30.02 1017 10 16 N/A
11:56 pm 23:56 Clear 55 12.8 55 12.8 100 100 E 3 6 30.02 1017 10 16 N/A

Powered by AerisWeather